Location: *
(29.1167°S, 130.0000°E)
Time: 23:55:50
(UTC+00:00)

CZ-4 R/B - Pass Details

Date: 21 July 2019
Orbit: 581 x 588 km, 97.8° (Epoch: 19 August)

Event Time Altitude Azimuth Distance (km) Brightness Sun altitude
Exits shadow 10:15:55 36° 158° (SSE) 941 5.2 -20.2°
Maximum altitude 10:17:34 76° 78° (ENE) 609 4.3 -20.6°
Drops below altitude 10° 10:21:40 10° 352° (N) 1,897 7.3 -21.4°
Sets 10:23:49 0° 351° (N) 2,788 8.2 -21.9°
